Tracking 34719 objects as of 12-Jul-2026
HD Live streaming from Space Station
objects crossing your sky now

FREGAT R/B

Track FREGAT R/B now!


NORAD ID: 42720
Int'l Code: 2017-027B
Perigee: 1,355.2 km
Apogee: 38,778.0 km
Inclination: 62.5 °
Period: 713.0 minutes
Semi major axis: 26437 km
RCS: Unknown
Launch date: May 25, 2017
Source: Commonwealth of Independent States (former USSR) (CIS)
Launch site: PLESETSK MISSILE AND SPACE COMPLEX (PKMTR)

Note: This is a ROCKET BODY
Your satellite tracking list
Your tracking list is empty




NASA's NSSDC Master Catalog

Two Line Element Set (TLE):
1 42720U 17027B   26192.21205592  .00000933  00000-0  00000-0 0  9993
2 42720  62.4759 229.2501 7077567 267.6966  17.2252  2.01962308 67319
Source of the keplerian elements: AFSPC